Time,TemperatureF,DewpointF,PressureIn,WindDirection,WindDirectionDegrees,WindSpeedMPH,WindSpeedGustMPH,Humidity,HourlyPrecipIn,Conditions,Clouds,dailyrainin,SoftwareType,DateUTC
2013-08-30 00:00:00,79.3,67.0,17.72,SW,225,0.0,0.0,66,0.00,,CLR,0.00,VWS V14.01,2013-08-30 05:00:00,
2013-08-30 00:15:00,79.0,67.1,17.72,SW,225,0.0,0.0,67,0.00,,CLR,0.00,VWS V14.01,2013-08-30 05:15:00,
2013-08-30 00:30:00,78.4,67.0,17.72,SW,225,0.0,0.0,68,0.00,,CLR,0.00,VWS V14.01,2013-08-30 05:30:00,
2013-08-30 00:45:00,77.7,66.3,17.72,SW,225,0.0,0.0,68,0.00,,CLR,0.00,VWS V14.01,2013-08-30 05:45:00,
2013-08-30 01:00:00,77.4,66.4,17.72,SW,225,0.0,0.0,69,0.00,,CLR,0.00,VWS V14.01,2013-08-30 06:00:00,
2013-08-30 01:15:00,76.8,66.3,17.72,SW,225,0.0,0.0,70,0.00,,CLR,0.00,VWS V14.01,2013-08-30 06:15:00,
2013-08-30 01:30:00,76.5,66.0,17.72,SW,224,0.0,0.0,70,0.00,,CLR,0.00,VWS V14.01,2013-08-30 06:30:00,
2013-08-30 01:45:00,76.3,66.2,17.72,SW,225,0.0,0.0,71,0.00,,CLR,0.00,VWS V14.01,2013-08-30 06:45:00,
2013-08-30 02:00:00,76.3,66.6,17.72,SW,225,0.0,0.0,72,0.00,,CLR,0.00,VWS V14.01,2013-08-30 07:00:00,
2013-08-30 02:15:00,76.1,66.4,17.72,SW,225,0.0,0.0,72,0.00,,CLR,0.00,VWS V14.01,2013-08-30 07:15:00,
2013-08-30 02:30:00,75.9,66.7,17.72,SW,225,0.0,0.0,73,0.00,,CLR,0.00,VWS V14.01,2013-08-30 07:30:00,
2013-08-30 02:45:00,76.1,66.0,17.72,SW,225,0.0,0.0,71,0.00,,CLR,0.00,VWS V14.01,2013-08-30 07:45:00,
2013-08-30 03:00:00,76.1,65.6,17.72,SW,225,0.0,0.0,70,0.00,,CLR,0.00,VWS V14.01,2013-08-30 08:00:00,
2013-08-30 03:15:00,76.3,65.4,17.72,SW,225,0.0,0.0,69,0.00,,CLR,0.00,VWS V14.01,2013-08-30 08:15:00,
2013-08-30 03:30:00,75.0,64.2,17.72,SW,225,0.0,0.0,69,0.00,,CLR,0.00,VWS V14.01,2013-08-30 08:30:00,
2013-08-30 03:45:00,74.1,63.7,17.72,SW,225,0.0,0.0,70,0.00,,CLR,0.00,VWS V14.01,2013-08-30 08:45:00,
2013-08-30 04:00:00,73.8,63.4,17.72,SW,225,0.0,0.0,70,0.00,,CLR,0.00,VWS V14.01,2013-08-30 09:00:00,
2013-08-30 04:15:00,73.4,63.0,17.72,SW,225,0.0,0.0,70,0.00,,CLR,0.00,VWS V14.01,2013-08-30 09:15:00,
2013-08-30 04:30:00,73.0,63.1,17.72,SW,225,0.0,0.0,71,0.00,,CLR,0.00,VWS V14.01,2013-08-30 09:30:00,
2013-08-30 04:45:00,72.9,63.3,17.72,SW,225,0.0,0.0,72,0.00,,CLR,0.00,VWS V14.01,2013-08-30 09:45:00,
2013-08-30 05:00:00,72.5,63.0,17.72,SW,225,0.0,0.0,72,0.00,,CLR,0.00,VWS V14.01,2013-08-30 10:00:00,
2013-08-30 05:15:00,72.1,63.0,17.72,SW,225,0.0,0.0,73,0.00,,CLR,0.00,VWS V14.01,2013-08-30 10:15:00,
2013-08-30 05:30:00,71.8,62.7,17.72,SW,225,0.0,0.0,73,0.00,,CLR,0.00,VWS V14.01,2013-08-30 10:30:00,
2013-08-30 05:45:00,71.6,62.9,17.72,SW,225,0.0,0.0,74,0.00,,CLR,0.00,VWS V14.01,2013-08-30 10:45:00,
2013-08-30 06:00:00,71.4,63.1,17.72,SW,225,0.0,0.0,75,0.00,,CLR,0.00,VWS V14.01,2013-08-30 11:00:00,
2013-08-30 06:15:00,71.2,62.9,17.72,SW,225,0.0,0.0,75,0.00,,CLR,0.00,VWS V14.01,2013-08-30 11:15:00,
2013-08-30 06:30:00,71.1,63.1,17.72,SW,225,0.0,0.0,76,0.00,,CLR,0.00,VWS V14.01,2013-08-30 11:30:00,
2013-08-30 06:45:00,70.7,62.8,17.72,SW,225,0.0,0.0,76,0.00,,CLR,0.00,VWS V14.01,2013-08-30 11:45:00,
2013-08-30 07:00:00,70.7,63.1,17.72,SW,225,0.0,0.0,77,0.00,,CLR,0.00,VWS V14.01,2013-08-30 12:00:00,
2013-08-30 07:15:00,70.9,63.7,17.72,SW,225,0.0,0.0,78,0.00,,CLR,0.00,VWS V14.01,2013-08-30 12:15:00,
2013-08-30 07:30:00,71.4,64.2,17.72,SW,225,0.0,0.0,78,0.00,,CLR,0.00,VWS V14.01,2013-08-30 12:30:00,
2013-08-30 07:45:00,72.1,64.9,17.72,SW,225,0.0,0.0,78,0.00,,CLR,0.00,VWS V14.01,2013-08-30 12:45:00,
2013-08-30 08:00:00,72.7,65.4,17.72,SW,225,0.0,0.0,78,0.00,,CLR,0.00,VWS V14.01,2013-08-30 13:00:00,
2013-08-30 08:15:00,73.6,66.3,17.72,SW,225,0.0,0.0,78,0.00,,CLR,0.00,VWS V14.01,2013-08-30 13:15:00,
2013-08-30 08:30:00,76.8,69.8,17.72,SW,225,0.0,0.0,79,0.00,,CLR,0.00,VWS V14.01,2013-08-30 13:30:00,
2013-08-30 08:45:00,81.7,72.2,17.72,SW,225,0.0,0.0,73,0.00,,CLR,0.00,VWS V14.01,2013-08-30 13:45:00,
2013-08-30 09:00:00,85.6,60.6,17.72,NNW,330,0.0,0.0,43,0.00,,CLR,0.00,VWS V14.01,2013-08-30 14:00:00,
2013-08-30 09:15:00,88.2,59.4,17.72,SW,219,0.0,0.0,38,0.00,,CLR,0.00,VWS V14.01,2013-08-30 14:15:00,
2013-08-30 09:30:00,90.1,60.4,17.72,WSW,250,0.0,0.0,37,0.00,,CLR,0.00,VWS V14.01,2013-08-30 14:30:00,
2013-08-30 09:45:00,91.4,58.3,17.72,WSW,256,0.0,0.0,33,0.00,,CLR,0.00,VWS V14.01,2013-08-30 14:45:00,
2013-08-30 10:00:00,93.2,59.0,17.72,SSW,197,0.0,3.6,32,0.00,,CLR,0.00,VWS V14.01,2013-08-30 15:00:00,
2013-08-30 10:15:00,91.2,58.1,17.72,SSW,213,0.0,3.1,33,0.00,,CLR,0.00,VWS V14.01,2013-08-30 15:15:00,
2013-08-30 10:30:00,90.5,58.3,17.72,SW,225,0.0,2.7,34,0.00,,CLR,0.00,VWS V14.01,2013-08-30 15:30:00,
2013-08-30 10:45:00,88.7,59.9,17.72,North,9,0.0,3.1,38,0.00,,CLR,0.00,VWS V14.01,2013-08-30 15:45:00,
2013-08-30 11:00:00,87.3,60.0,17.72,NNE,14,0.0,3.1,40,0.00,,CLR,0.00,VWS V14.01,2013-08-30 16:00:00,
2013-08-30 11:15:00,87.8,59.8,17.72,WNW,291,0.0,0.0,39,0.00,,CLR,0.00,VWS V14.01,2013-08-30 16:15:00,
2013-08-30 11:30:00,87.8,59.1,17.72,West,270,0.0,0.0,38,0.00,,CLR,0.00,VWS V14.01,2013-08-30 16:30:00,
2013-08-30 11:45:00,89.2,59.6,17.72,WNW,283,0.0,2.7,37,0.00,,CLR,0.00,VWS V14.01,2013-08-30 16:45:00,
2013-08-30 12:00:00,89.6,57.5,17.72,WSW,241,0.0,0.0,34,0.00,,CLR,0.00,VWS V14.01,2013-08-30 17:00:00,
2013-08-30 12:15:00,89.6,58.3,17.72,SSW,205,0.0,2.7,35,0.00,,CLR,0.00,VWS V14.01,2013-08-30 17:15:00,
2013-08-30 12:30:00,90.9,59.5,17.72,SW,225,0.0,3.6,35,0.00,,CLR,0.00,VWS V14.01,2013-08-30 17:30:00,
2013-08-30 12:45:00,90.5,58.3,17.72,North,357,0.0,3.1,34,0.00,,CLR,0.00,VWS V14.01,2013-08-30 17:45:00,
2013-08-30 13:00:00,91.0,59.6,17.72,NNW,334,0.0,0.0,35,0.00,,CLR,0.00,VWS V14.01,2013-08-30 18:00:00,
2013-08-30 13:15:00,93.4,59.1,17.72,WSW,243,0.0,4.0,32,0.00,,CLR,0.00,VWS V14.01,2013-08-30 18:15:00,
2013-08-30 13:30:00,92.7,58.5,17.72,North,349,0.0,2.7,32,0.00,,CLR,0.00,VWS V14.01,2013-08-30 18:30:00,
2013-08-30 13:45:00,92.3,59.1,17.72,ENE,77,0.0,2.7,33,0.00,,CLR,0.00,VWS V14.01,2013-08-30 18:45:00,
2013-08-30 14:00:00,91.8,58.6,17.72,ENE,72,0.0,5.6,33,0.00,,CLR,0.00,VWS V14.01,2013-08-30 19:00:00,
2013-08-30 14:15:00,92.1,61.3,17.72,WNW,299,0.0,4.5,36,0.00,,CLR,0.00,VWS V14.01,2013-08-30 19:15:00,
2013-08-30 14:30:00,93.0,59.7,17.72,South,182,0.0,2.7,33,0.00,,CLR,0.00,VWS V14.01,2013-08-30 19:30:00,
2013-08-30 14:45:00,93.0,62.9,17.72,SSW,207,0.0,4.5,37,0.00,,CLR,0.00,VWS V14.01,2013-08-30 19:45:00,
2013-08-30 15:00:00,95.7,60.3,17.72,SW,220,0.0,4.5,31,0.00,,CLR,0.00,VWS V14.01,2013-08-30 20:00:00,
2013-08-30 15:15:00,93.9,60.5,17.72,NNW,344,0.0,3.6,33,0.00,,CLR,0.00,VWS V14.01,2013-08-30 20:15:00,
2013-08-30 15:30:00,93.4,60.8,17.72,North,357,0.0,5.1,34,0.00,,CLR,0.00,VWS V14.01,2013-08-30 20:30:00,
2013-08-30 15:45:00,93.6,60.2,17.72,East,90,5.1,5.1,33,0.00,,CLR,0.00,VWS V14.01,2013-08-30 20:45:00,
2013-08-30 16:00:00,93.7,62.0,17.72,ENE,73,0.0,5.1,35,0.00,,CLR,0.00,VWS V14.01,2013-08-30 21:00:00,
2013-08-30 16:15:00,94.1,63.9,17.72,East,81,0.0,2.7,37,0.00,,FEW070,0.00,VWS V14.01,2013-08-30 21:15:00,
2013-08-30 16:30:00,94.1,64.6,17.72,NE,34,0.0,4.5,38,0.00,,FEW070,0.00,VWS V14.01,2013-08-30 21:30:00,
2013-08-30 16:45:00,93.7,64.3,17.72,NNE,32,3.1,4.7,38,0.00,,FEW070,0.00,VWS V14.01,2013-08-30 21:45:00,
2013-08-30 17:00:00,93.7,65.1,17.72,East,94,3.1,6.5,39,0.00,,FEW070,0.00,VWS V14.01,2013-08-30 22:00:00,
2013-08-30 17:15:00,92.7,67.6,17.72,ENE,75,4.7,6.0,44,0.00,,FEW070,0.00,VWS V14.01,2013-08-30 22:15:00,
2013-08-30 17:30:00,92.3,67.9,17.72,ENE,61,4.7,6.0,45,0.00,,FEW070,0.00,VWS V14.01,2013-08-30 22:30:00,
2013-08-30 17:45:00,91.0,67.4,17.72,East,85,4.5,6.5,46,0.00,,FEW070,0.00,VWS V14.01,2013-08-30 22:45:00,
2013-08-30 18:00:00,90.5,67.5,17.72,ENE,59,2.7,6.0,47,0.00,,FEW070,0.00,VWS V14.01,2013-08-30 23:00:00,
2013-08-30 18:15:00,90.0,66.4,17.72,ENE,65,3.1,6.9,46,0.00,,FEW070,0.00,VWS V14.01,2013-08-30 23:15:00,
2013-08-30 18:30:00,89.6,66.7,17.72,ESE,109,7.8,7.8,47,0.00,,FEW070,0.00,VWS V14.01,2013-08-30 23:30:00,
2013-08-30 18:45:00,89.1,66.8,17.72,NNE,32,2.7,7.8,48,0.00,,FEW070,0.00,VWS V14.01,2013-08-30 23:45:00,
2013-08-30 19:00:00,88.5,67.5,17.72,ENE,60,0.0,5.6,50,0.00,,FEW070,0.00,VWS V14.01,2013-08-31 00:00:00,
2013-08-30 19:15:00,88.0,68.7,17.72,North,357,0.0,5.1,53,0.00,,CLR,0.00,VWS V14.01,2013-08-31 00:15:00,
2013-08-30 19:30:00,87.1,67.9,17.72,NE,36,0.0,5.1,53,0.00,,CLR,0.00,VWS V14.01,2013-08-31 00:30:00,
2013-08-30 19:45:00,86.4,67.8,17.72,ENE,61,0.0,4.7,54,0.00,,CLR,0.00,VWS V14.01,2013-08-31 00:45:00,
2013-08-30 20:00:00,85.3,68.8,17.72,ENE,72,0.0,3.6,58,0.00,,CLR,0.00,VWS V14.01,2013-08-31 01:00:00,
2013-08-30 20:15:00,84.4,68.5,17.72,ENE,57,0.0,3.1,59,0.00,,FEW070,0.00,VWS V14.01,2013-08-31 01:15:00,
2013-08-30 20:30:00,83.8,69.4,17.72,NNE,32,0.0,4.0,62,0.00,,FEW070,0.00,VWS V14.01,2013-08-31 01:30:00,
2013-08-30 20:45:00,83.1,69.2,17.72,NE,42,0.0,4.0,63,0.00,,FEW070,0.00,VWS V14.01,2013-08-31 01:45:00,
2013-08-30 21:00:00,82.6,69.2,17.72,East,88,0.0,0.0,64,0.00,,FEW070,0.00,VWS V14.01,2013-08-31 02:00:00,
2013-08-30 21:15:00,82.0,69.1,17.72,North,5,0.0,4.0,65,0.00,,CLR,0.00,VWS V14.01,2013-08-31 02:15:00,
2013-08-30 21:30:00,81.3,68.9,17.72,NNE,30,0.0,3.1,66,0.00,,CLR,0.00,VWS V14.01,2013-08-31 02:30:00,
2013-08-30 21:45:00,80.8,68.8,17.72,ENE,72,0.0,4.0,67,0.00,,CLR,0.00,VWS V14.01,2013-08-31 02:45:00,
2013-08-30 22:00:00,80.2,68.7,17.72,ENE,60,0.0,5.6,68,0.00,,CLR,0.00,VWS V14.01,2013-08-31 03:00:00,
2013-08-30 22:15:00,79.9,68.4,17.72,ENE,75,0.0,4.0,68,0.00,,CLR,0.00,VWS V14.01,2013-08-31 03:15:00,
2013-08-30 22:30:00,79.3,68.3,17.72,ENE,62,0.0,4.0,69,0.00,,CLR,0.00,VWS V14.01,2013-08-31 03:30:00,
2013-08-30 22:45:00,79.0,67.9,17.72,ENE,78,0.0,3.1,69,0.00,,CLR,0.00,VWS V14.01,2013-08-31 03:45:00,
2013-08-30 23:00:00,78.6,68.0,17.72,East,87,0.0,4.7,70,0.00,,CLR,0.00,VWS V14.01,2013-08-31 04:00:00,
2013-08-30 23:15:00,77.9,67.8,17.72,East,85,0.0,0.0,71,0.00,,CLR,0.00,VWS V14.01,2013-08-31 04:15:00,
2013-08-30 23:30:00,77.4,67.6,17.72,East,85,0.0,0.0,72,0.00,,CLR,0.00,VWS V14.01,2013-08-31 04:30:00,
2013-08-30 23:45:00,76.6,67.3,17.72,East,85,0.0,0.0,73,0.00,,CLR,0.00,VWS V14.01,2013-08-31 04:45:00,